This is the latest recevied weather packets stored in our database for station/object HK6LRQ-26. If no packets are shown the sender has not sent any weather packets the latest 10 day(s).
| Time | Temp. | Humidity | Pressure | Rain* | Wind** | Luminosity | Snow |
|---|---|---|---|---|---|---|---|
| 1778206002 | 18.89° C | 72% | 1015 hPa | 0 mm | - | - | - |
| 1778204201 | 18.89° C | 70% | 1015 hPa | 0 mm | - | - | - |
| 1778202400 | 18.89° C | 69% | 1014 hPa | 0 mm | - | - | - |
| 1778200599 | 18.89° C | 69% | 1014 hPa | 0 mm | - | - | - |
| 1778198797 | 18.89° C | 69% | 1013 hPa | 0 mm | - | - | - |
| 1778196997 | 21.67° C | 67% | 1012 hPa | 0 mm | - | - | - |
| 1778195196 | 21.67° C | 70% | 1011 hPa | 0 mm | - | - | - |
| 1778193395 | 21.67° C | 72% | 1011 hPa | 0 mm | - | - | - |
| 1778191594 | 22.22° C | 72% | 1010 hPa | 0 mm | - | - | - |
| 1778189793 | 22.22° C | 72% | 1010 hPa | 0 mm | - | - | - |
| 1778187992 | 22.78° C | 72% | 1010 hPa | 0 mm | - | - | - |
| 1778186191 | 22.78° C | 72% | 1010 hPa | 0 mm | - | - | - |
| 1778184390 | 23.33° C | 72% | 1010 hPa | 0 mm | - | - | - |
| 1778182589 | 23.33° C | 72% | 1010 hPa | 0 mm | - | - | - |
| 1778180788 | 23.33° C | 72% | 1010 hPa | 0 mm | - | - | - |
| 1778178986 | 23.33° C | 72% | 1010 hPa | 0 mm | - | - | - |
| 1778177185 | 23.33° C | 72% | 1011 hPa | 0 mm | - | - | - |
| 1778175384 | 23.33° C | 72% | 1012 hPa | 0 mm | - | - | - |
| 1778173583 | 23.33° C | 72% | 1013 hPa | 0 mm | - | - | - |
| 1778171782 | 21.67° C | 83% | 1014 hPa | 0 mm | - | - | - |
| 1778169981 | 21.67° C | 83% | 1015 hPa | 0 mm | - | - | - |
| 1778168180 | 21.11° C | 83% | 1015 hPa | 0 mm | - | - | - |
| 1778166379 | 21.11° C | 83% | 1016 hPa | 0 mm | - | - | - |
| 1778164578 | 18.33° C | 81% | 1016 hPa | 0 mm | - | - | - |
| 1778162777 | 17.78° C | 79% | 1016 hPa | 0 mm | - | - | - |
* Rain latest hour (hover to see other rain measurements)
** Current wind speed in m/s (hover to see current wind gust speed)